Dawson Community Airport
KGDV : now visible

Airfield :











YOU CAN JOIN US ON...

 
LOGIN :

Register | Disclaimer

   EN    FR    IT 

 









Legend :    VFR   Marginal VFR   IFR   Intensive IFR   Very Intensive IFR
Visi :
Ceiling :
>= 8 km
>= 3000ft
5 to 8 km
1000 to 3000 ft
1500m to 5 km
500 to 1000 ft
800 to 1500m
200 to 500 ft
< 800m
< 200 ft
Symbols :   Thunderstorms  Fog  Heavy snow  Heavy precipitations  Wind > 20 kt






- Airport Elevation : 2458 ft


KGDV - Dawson Community

CURRENT METAR :
  • 232256Z AUTO 15008KT 10SM OVC028 08/03 A2973 RMK AO2 SLP079 T00830033

EXPIRED METARs :
  • 232156Z AUTO 16010KT 10SM OVC028 09/03 A2972 RMK AO2 SLP075 T00890033
  • 232056Z AUTO 15010KT 10SM OVC026 09/03 A2971 RMK AO2 SLP071 T00890033 56007

TAF KGDV
Valid from the 23 at 18:00 until the 24 at 18:00 UTC


231737Z 2318/2418 12015G25KT P6SM BKN015
FM232000 11010KT P6SM BKN070
FM240600 VRB06KT 6SM -RA OVC025
FM241200 VRB06KT P6SM OVC015
KZLC FIR / North America



MET'MAP, your aeronautical weather chart ! - Copyright ORBIFLY December 2007 - Disclaimer

ORBIFLY MET'MAP TEAM :

Programming & Development : Alexandra Zaïnal
Concept & original design : Baudouin d'Aumeries
Assistance for programming : Marc-Olivier Méhu
Technical & hardware support : Manuel Goepfert

Contact : metmap@orbifly.com




SOURCES & CREDITS :

   NOAA       Earth
Advisory